Union Aéronautique de la Côte d'Azur

Union Aéronautique de la Côte d'Azur
UACA
Approuvé A.T.O. EASA – N°FR.ATO.0108

UNION des aéroclubs
Cannes “Ailes d’Azur”, Nice “Côte d’Azur”, Grasse “St Exupery”, ACCA “Francis Séverac”

Un cache-pitot se trouve à bord de chaque avion. Pensez à le mettre en place à la fin de chaque vol !

Avant de quitter l'avion, vérifiez que vous n'emportez pas la checklist

Un vol ne s'entreprend qu'avec un pare-brise parfaitement propre, il en va de votre sécurité, et de celle des autres

Après chaque vol, merci de mettre en place les pares-soleil!


Météo à Cannes:
METAR
LFMD 261000Z AUTO 16004KT 130V190 CAVOK 14/08 Q1029 NOSIG =
LFMD 260800Z 2609/2709 VRB03KT CAVOK TEMPO 2612/2616 16010KT BECMG 2619/2622 BKN010 PROB40 TEMPO 2622/2707 1500 BR OVC006 PROB30 TEMPO 2622/2706 0400 FG VV/// BECMG 2707/2709 07010KT

TAF
LFMD 260800Z 2609/2709 VRB03KT CAVOK TEMPO 2612/2616 16010KT BECMG 2619/2622 BKN010 PROB40 TEMPO 2622/2707 1500 BR OVC006 PROB30 TEMPO 2622/2706 0400 FG VV/// BECMG 2707/2709 07010KT =

SR / SS: 06:14 / 17:15 UTC (LFMD 2021-02-26)